Location: Austin
(30.3000°N, 97.7500°W)
Time: 11:46:53
(UTC-05:00)

Cosmos 962 Rocket - Pass Details

Date: 26 May 2023
Orbit: 950 x 999 km, 82.9° (Epoch: 30 May)

Event Time Altitude Azimuth Distance (km) Brightness Sun altitude
Exits shadow 23:02:32 60° 198° (SSW) 1,132 4.6 -27.7°
Maximum altitude 23:03:47 83° 275° (W) 1,009 4.5 -27.9°
Drops below altitude 10° 23:10:09 10° 4° (N) 2,761 7.4 -28.7°
Sets 23:12:41 0° 5° (N) 3,707 8.2 -29.0°
